Weather History for KMRN - July, 2014

Change the Weather History Date:

Thursday, July 3, 2014

  Actual Average (KHKY) Record (KHKY)
Temperature  
Mean Temperature 78 °F -  
Max Temperature 90 °F 86 °F 99 °F (1953)
Min Temperature 66 °F 66 °F 57 °F (1952)
Cooling Degree Days 13    
Growing Degree Days 28 (Base 50)    
Moisture  
Dew Point 67 °F    
Average Humidity 75    
Maximum Humidity 100    
Minimum Humidity 48    
Precipitation  
Precipitation 0.00 in - - ()
Sea Level Pressure  
Sea Level Pressure 30.03 in    
Wind  
Wind Speed 1 mph (North)    
Max Wind Speed 10 mph    
Max Gust Speed 17 mph    
Visibility 10 miles    
Events Rain    
Averages and records for this station are not official NWS values.
T = Trace of Precipitation, MM = Missing Value Source: NWS Daily Summary

Daily Weather History Graph

Daily Weather History Graph

Search for Another Location

Airport or City:

Trip Planner

Search our weather history database for the weather conditions in past years. The results will help you decide how hot, cold, wet, or windy it might be!

Date:

Astronomy

Jul. 03, 2014 Rise Set
Actual Time 6:14 AM EDT 8:46 PM EDT
Civil Twilight 5:44 AM EDT 9:16 PM EDT
Nautical Twilight 5:07 AM EDT 9:53 PM EDT
Astronomical Twilight 4:26 AM EDT 10:34 PM EDT
Moon 12:00 PM EDT (7/3) No Moon Set
Length of Visible Light 15h 31m
Length of Day
14h 31m
Waxing Crescent, 33% of the Moon is Illuminated
Jul 3
Waxing Crescent
Jul 5
First Quarter
Jul 12
Full
Jul 18
Last Quarter
Jul 26
New

Hourly Weather History & Observations

Time (EDT) Temp. Heat Index Dew Point Humidity Pressure Visibility Wind Dir Wind Speed Gust Speed Precip Events Conditions
12:15 AM 72.0 °F - 63.7 °F 75% 30.04 in 10.0 mi Calm Calm - N/A   Clear
12:35 AM 71.4 °F - 64.4 °F 78% 30.05 in 10.0 mi Calm Calm - N/A   Clear
12:55 AM 70.5 °F - 65.3 °F 83% 30.05 in 10.0 mi Calm Calm - N/A   Clear
1:15 AM 68.0 °F - 65.3 °F 91% 30.05 in 10.0 mi Calm Calm - N/A   Clear
1:35 AM 68.7 °F - 65.7 °F 90% 30.05 in 10.0 mi Calm Calm - N/A   Scattered Clouds
1:55 AM 68.0 °F - 66.2 °F 94% 30.05 in 10.0 mi Calm Calm - N/A   Mostly Cloudy
2:15 AM 67.5 °F - 66.2 °F 96% 30.05 in 10.0 mi Calm Calm - N/A   Scattered Clouds
2:35 AM 67.5 °F - 66.7 °F 98% 30.04 in 10.0 mi Calm Calm - N/A   Scattered Clouds
2:55 AM 68.7 °F - 67.3 °F 95% 30.04 in 10.0 mi NNW 3.5 mph - N/A   Scattered Clouds
3:15 AM 68.0 °F - 66.2 °F 94% 30.04 in 10.0 mi Calm Calm - N/A   Mostly Cloudy
3:35 AM 67.6 °F - 66.2 °F 95% 30.03 in 10.0 mi Calm Calm - N/A   Mostly Cloudy
3:55 AM 66.9 °F - 66.2 °F 98% 30.03 in 10.0 mi Calm Calm - N/A   Mostly Cloudy
4:15 AM 67.5 °F - 66.0 °F 95% 30.02 in 10.0 mi Calm Calm - N/A   Mostly Cloudy
4:35 AM 66.9 °F - 66.2 °F 98% 30.02 in 10.0 mi Calm Calm - N/A   Scattered Clouds
4:55 AM 66.2 °F - 65.7 °F 98% 30.02 in 10.0 mi Calm Calm - N/A   Mostly Cloudy
5:15 AM 66.6 °F - 66.6 °F 100% 30.03 in 10.0 mi Calm Calm - N/A   Mostly Cloudy
5:35 AM 66.0 °F - 65.8 °F 99% 30.03 in 10.0 mi Calm Calm - N/A   Mostly Cloudy
5:55 AM 66.4 °F - 66.2 °F 99% 30.04 in 10.0 mi Calm Calm - N/A   Scattered Clouds
6:15 AM 66.9 °F - 66.9 °F 100% 30.04 in 10.0 mi Calm Calm - N/A   Clear
6:35 AM 66.9 °F - 66.7 °F 99% 30.05 in 10.0 mi Calm Calm - N/A   Clear
6:55 AM 66.6 °F - 66.2 °F 99% 30.05 in 10.0 mi Calm Calm - N/A   Clear
7:15 AM 68.5 °F - 67.8 °F 98% 30.05 in 10.0 mi Calm Calm - N/A   Clear
7:35 AM 69.3 °F - 67.1 °F 93% 30.05 in 10.0 mi Calm Calm - N/A   Clear
7:55 AM 70.7 °F - 67.5 °F 89% 30.06 in 10.0 mi Calm Calm - N/A   Clear
8:15 AM 72.3 °F - 67.6 °F 85% 30.05 in 10.0 mi Calm Calm - N/A   Clear
8:35 AM 74.8 °F - 67.3 °F 77% 30.06 in 10.0 mi Calm Calm - N/A   Clear
8:55 AM 75.6 °F - 68.0 °F 77% 30.06 in 10.0 mi Calm Calm - N/A   Clear
9:15 AM 77.2 °F - 67.8 °F 73% 30.07 in 10.0 mi Calm Calm - N/A   Clear
9:35 AM 78.6 °F - 68.0 °F 70% 30.07 in 10.0 mi Calm Calm - N/A   Clear
9:55 AM 79.5 °F - 69.1 °F 70% 30.07 in 10.0 mi Calm Calm - N/A   Clear
10:15 AM 81.1 °F 84.2 °F 68.9 °F 66% 30.07 in 10.0 mi Calm Calm - N/A   Clear
10:35 AM 81.5 °F 84.8 °F 69.3 °F 66% 30.07 in 10.0 mi East 4.6 mph - N/A   Clear
10:55 AM 82.9 °F 85.8 °F 68.0 °F 60% 30.06 in 10.0 mi SE 4.6 mph - N/A   Clear
11:15 AM 83.3 °F 86.6 °F 68.4 °F 61% 30.06 in 10.0 mi Calm Calm - N/A   Clear
11:35 AM 84.2 °F 87.9 °F 68.7 °F 60% 30.05 in 10.0 mi Calm Calm - N/A   Clear
12:15 PM 83.7 °F 86.7 °F 68.2 °F 59% 30.05 in 10.0 mi Calm Calm - N/A   Scattered Clouds
12:35 PM 85.6 °F 89.7 °F 69.4 °F 58% 30.04 in 10.0 mi Calm Calm - N/A   Scattered Clouds
12:55 PM 86.9 °F 91.3 °F 69.3 °F 56% 30.04 in 10.0 mi ESE 3.5 mph - N/A   Clear
1:15 PM 87.4 °F 91.9 °F 69.3 °F 55% 30.03 in 10.0 mi SE 3.5 mph - N/A   Clear
1:35 PM 87.3 °F 91.2 °F 68.7 °F 54% 30.02 in 10.0 mi Calm Calm - N/A   Clear
1:55 PM 88.2 °F 92.9 °F 69.6 °F 54% 30.02 in 10.0 mi Calm Calm - N/A   Clear
2:15 PM 89.1 °F 93.7 °F 69.1 °F 52% 30.00 in 10.0 mi South 4.6 mph - N/A   Scattered Clouds
2:35 PM 88.7 °F 93.5 °F 69.4 °F 53% 29.99 in 10.0 mi SE 3.5 mph - N/A   Clear
2:55 PM 90.5 °F 94.6 °F 68.4 °F 48% 29.99 in 10.0 mi ESE 3.5 mph - N/A   Clear
3:15 PM 88.5 °F 92.7 °F 68.7 °F 52% 29.98 in 10.0 mi SSE 4.6 mph - N/A   Scattered Clouds
3:35 PM 86.2 °F 90.7 °F 70.0 °F 58% 29.98 in 10.0 mi South 3.5 mph - N/A   Scattered Clouds
3:55 PM 85.1 °F 90.4 °F 71.1 °F 63% 29.98 in 10.0 mi Calm Calm - N/A Rain Light Rain
4:15 PM 79.5 °F - 70.7 °F 74% 29.99 in 10.0 mi West 10.4 mph 17.3 mph N/A Rain Light Rain
4:35 PM 78.8 °F - 70.7 °F 76% 30.00 in 10.0 mi SSW 5.8 mph - N/A Rain Light Rain
4:55 PM 79.3 °F - 70.2 °F 73% 29.99 in 10.0 mi WSW 3.5 mph - N/A   Clear
5:15 PM 81.7 °F 84.3 °F 67.5 °F 62% 29.97 in 10.0 mi West 5.8 mph - N/A   Clear
5:35 PM 82.4 °F 86.1 °F 69.4 °F 65% 29.97 in 10.0 mi North 9.2 mph - N/A   Scattered Clouds
5:55 PM 81.9 °F 84.6 °F 67.5 °F 62% 29.97 in 10.0 mi North 8.1 mph - N/A   Scattered Clouds
6:15 PM 82.0 °F 84.9 °F 68.0 °F 62% 29.97 in 10.0 mi North 3.5 mph - N/A   Scattered Clouds
6:35 PM 82.6 °F 85.3 °F 67.5 °F 60% 29.99 in 10.0 mi North 3.5 mph - N/A   Mostly Cloudy
6:55 PM 82.8 °F 85.5 °F 67.8 °F 60% 30.00 in 10.0 mi NW 3.5 mph - N/A   Overcast
7:15 PM 81.9 °F 85.0 °F 68.5 °F 64% 30.00 in 10.0 mi NNW 4.6 mph - N/A   Overcast
7:35 PM 81.3 °F 84.6 °F 69.4 °F 67% 30.01 in 10.0 mi Calm Calm - N/A   Overcast
7:55 PM 80.4 °F 83.0 °F 67.5 °F 65% 30.02 in 10.0 mi North 5.8 mph - N/A   Mostly Cloudy
8:15 PM 79.0 °F - 66.9 °F 66% 30.03 in 10.0 mi North 4.6 mph - N/A   Overcast
8:35 PM 78.3 °F - 68.4 °F 71% 30.04 in 10.0 mi North 3.5 mph - N/A   Overcast
8:55 PM 77.2 °F - 69.1 °F 76% 30.05 in 10.0 mi Calm Calm - N/A   Mostly Cloudy
9:15 PM 77.0 °F - 67.3 °F 72% 30.05 in 10.0 mi North 3.5 mph - N/A   Mostly Cloudy
9:35 PM 76.5 °F - 64.9 °F 67% 30.05 in - North 3.5 mph - N/A   Mostly Cloudy
9:55 PM 74.7 °F - 64.4 °F 70% 30.06 in - North 5.8 mph - N/A   Scattered Clouds
10:15 PM 74.3 °F - 63.7 °F 69% 30.06 in 10.0 mi North 3.5 mph - N/A   Mostly Cloudy
10:35 PM 72.3 °F - 64.4 °F 76% 30.06 in 10.0 mi NNW 3.5 mph - N/A   Scattered Clouds
10:55 PM 73.4 °F - 61.7 °F 67% 30.06 in 10.0 mi NNW 4.6 mph - N/A   Clear
11:15 PM 72.9 °F - 60.6 °F 65% 30.06 in 10.0 mi NNW 3.5 mph - N/A   Clear
11:35 PM 72.3 °F - 60.6 °F 67% 30.05 in 10.0 mi Calm Calm - N/A   Scattered Clouds
11:55 PM 68.0 °F - 63.3 °F 85% 30.05 in 10.0 mi Calm Calm - N/A   Scattered Clouds